Location: Newark
(48.1281°N, 2.1556°W)
Time: 15:35:45
(UTC+00:00)

Envisat - Pass Details

Date: 26 November 2019
Orbit: 764 x 766 km, 98.1° (Epoch: 05 December)

Event Time Altitude Azimuth Distance (km) Brightness Sun altitude
Rises 17:56:08 0° 164° (SSE) 3,219 6.2 -15.5°
Reaches altitude 10° 17:58:26 10° 164° (SSE) 2,297 5.4 -15.9°
Maximum altitude 18:03:30 89° 74° (ENE) 773 2.9 -16.7°
Drops below altitude 10° 18:08:37 10° 347° (NNW) 2,313 5.5 -17.5°
Sets 18:10:56 0° 347° (NNW) 3,244 6.3 -17.9°
